2023/10/18 00:00:00, 0.4,11.7
2023/10/18 00:10:00, 0.4,11.3
2023/10/18 00:20:00, 0.4,11.4
2023/10/18 00:30:00, 0.4,11.0
2023/10/18 00:40:00, 0.4,10.9
2023/10/18 00:50:00, 0.4,10.7
2023/10/18 01:00:00, 0.4,10.7
2023/10/18 01:10:00, 0.4,10.8
2023/10/18 01:20:00, 0.4,10.9
2023/10/18 01:30:00, 0.4,10.6
2023/10/18 01:40:00, 0.4,10.8
2023/10/18 01:50:00, 0.4,10.9
2023/10/18 02:00:00, 0.4,10.6
2023/10/18 02:10:00, 0.4,10.6
2023/10/18 02:20:00, 0.4,10.4
2023/10/18 02:30:00, 0.4,10.3
2023/10/18 02:40:00, 0.4,10.5
2023/10/18 02:50:00, 0.4,10.7
2023/10/18 03:00:00, 0.4,10.2
2023/10/18 03:10:00, 0.3,10.2
2023/10/18 03:20:00, 0.3, 9.9
2023/10/18 03:30:00, 0.3,10.0
2023/10/18 03:40:00, 0.4,10.0
2023/10/18 03:50:00, 0.4, 9.9
2023/10/18 04:00:00, 0.4, 9.9
2023/10/18 04:10:00, 0.4,10.1
2023/10/18 04:20:00, 0.4,10.3
2023/10/18 04:30:00, 0.4,10.3
2023/10/18 04:40:00, 0.4,10.7
2023/10/18 04:50:00, 0.3,10.2
2023/10/18 05:00:00, 0.3,10.2
2023/10/18 05:10:00, 0.3,10.2
2023/10/18 05:20:00, 0.3,10.1
2023/10/18 05:30:00, 0.4, 9.9
2023/10/18 05:40:00, 0.4, 9.9
2023/10/18 05:50:00, 0.4,10.0
2023/10/18 06:00:00, 0.4, 9.8
2023/10/18 06:10:00, 0.4,10.3
2023/10/18 06:20:00, 0.4,10.6
2023/10/18 06:30:00, 0.4,11.2
2023/10/18 06:40:00, 0.4,11.2
2023/10/18 06:50:00, 0.4,11.4
2023/10/18 07:00:00, 0.3,11.7
2023/10/18 07:10:00, 0.3,13.1
2023/10/18 07:20:00, 0.4,13.6
2023/10/18 07:30:00, 0.3,15.3
2023/10/18 07:40:00, 0.3,14.4
2023/10/18 07:50:00, 0.3,14.6
2023/10/18 08:00:00, 0.3,15.1
2023/10/18 08:10:00, 0.4,18.8
2023/10/18 08:20:00, 0.4,17.4
2023/10/18 08:30:00, 0.4,20.1
2023/10/18 08:40:00, 0.4,20.8
2023/10/18 08:50:00, 0.4,21.5
2023/10/18 09:00:00, 0.5,21.7
2023/10/18 09:10:00, 0.4,21.1
2023/10/18 09:20:00, 0.4,22.8
2023/10/18 09:30:00, 0.3,21.9
2023/10/18 09:40:00, 0.2,22.7
2023/10/18 09:50:00, 0.3,25.2
2023/10/18 10:00:00, 0.3,27.7
2023/10/18 10:10:00, 0.3,29.1
2023/10/18 10:20:00, 0.2,27.6
2023/10/18 10:30:00, 0.2,27.9
2023/10/18 10:40:00, 0.2,28.2
2023/10/18 10:50:00, 0.2,27.3
2023/10/18 11:00:00, 0.2,27.3
2023/10/18 11:10:00, 0.1,27.7
2023/10/18 11:20:00, 0.1,29.1
2023/10/18 11:30:00, 0.1,27.0
2023/10/18 11:40:00, 0.1,28.3
2023/10/18 11:50:00, 0.0,27.6
2023/10/18 12:00:00, 0.0,28.0
2023/10/18 12:10:00, 0.0,28.5
2023/10/18 12:20:00, 0.0,27.6
2023/10/18 12:30:00, 0.0,27.8
2023/10/18 12:40:00, 0.0,28.2
2023/10/18 12:50:00, 0.0,28.2
2023/10/18 13:00:00, 0.0,28.4
2023/10/18 13:10:00, 0.0,28.1
2023/10/18 13:20:00, 0.0,28.9
2023/10/18 13:30:00, 0.0,29.6
2023/10/18 13:40:00, 0.0,27.1
2023/10/18 13:50:00, 0.0,28.2
2023/10/18 14:00:00, 0.0,27.7
2023/10/18 14:10:00, 0.0,28.0
2023/10/18 14:20:00, 0.0,27.8
2023/10/18 14:30:00, 0.0,28.9
2023/10/18 14:40:00, 0.0,28.2
2023/10/18 14:50:00, 0.0,28.3
2023/10/18 15:00:00, 0.0,25.0
2023/10/18 15:10:00, 0.0,25.4
2023/10/18 15:20:00, 0.0,25.4
2023/10/18 15:30:00, 0.0,26.2
2023/10/18 15:40:00, 0.0,26.8
2023/10/18 15:50:00, 0.0,27.3
2023/10/18 16:00:00, 0.0,27.0
2023/10/18 16:10:00, 0.0,26.3
2023/10/18 16:20:00, 0.0,25.8
2023/10/18 16:30:00, 0.1,25.0
2023/10/18 16:40:00, 0.1,24.8
2023/10/18 16:50:00, 0.2,22.6
2023/10/18 17:00:00, 0.2,20.9
2023/10/18 17:10:00, 0.2,20.4
2023/10/18 17:20:00, 0.2,19.1
2023/10/18 17:30:00, 0.2,18.5
2023/10/18 17:40:00, 0.2,17.3
2023/10/18 17:50:00, 0.2,16.5
2023/10/18 18:00:00, 0.3,16.9
2023/10/18 18:10:00, 0.3,16.6
2023/10/18 18:20:00, 0.3,17.0
2023/10/18 18:30:00, 0.3,17.1
2023/10/18 18:40:00, 0.3,16.2
2023/10/18 18:50:00, 0.3,15.8
2023/10/18 19:00:00, 0.3,15.2
2023/10/18 19:10:00, 0.4,14.9
2023/10/18 19:20:00, 0.4,14.4
2023/10/18 19:30:00, 0.4,14.0
2023/10/18 19:40:00, 0.4,13.8
2023/10/18 19:50:00, 0.4,13.9
2023/10/18 20:00:00, 0.4,13.4
2023/10/18 20:10:00, 0.4,14.1
2023/10/18 20:20:00, 0.4,14.4
2023/10/18 20:30:00, 0.3,14.5
2023/10/18 20:40:00, 0.3,14.5
2023/10/18 20:50:00, 0.4,15.4
2023/10/18 21:00:00, 0.4,15.1
2023/10/18 21:10:00, 0.4,15.2
2023/10/18 21:20:00, 0.4,15.0
2023/10/18 21:30:00, 0.4,15.1
2023/10/18 21:40:00, 0.4,15.0
2023/10/18 21:50:00, 0.4,15.0
2023/10/18 22:00:00, 0.4,14.5
2023/10/18 22:10:00, 0.3,14.0
2023/10/18 22:20:00, 0.3,13.9
2023/10/18 22:30:00, 0.3,14.0
2023/10/18 22:40:00, 0.3,13.6
2023/10/18 22:50:00, 0.3,14.0
2023/10/18 23:00:00, 0.3,13.3
2023/10/18 23:10:00, 0.4,13.0
2023/10/18 23:20:00, 0.4,12.5
2023/10/18 23:30:00, 0.4,12.9
2023/10/18 23:40:00, 0.3,12.3
2023/10/18 23:50:00, 0.3,12.1
